Latest Coastal Weather Observations for Northern Endeavour (near 10.5S 126E)

IDD60701

Issued at 4:01 am CST Monday 3 August 2015 (issued every 10 minutes, with the page automatically refreshed every 10 minutes)

About coastal observations | Map of coastal stations | Coastal observations for NT | Marine services | Other Formats
Station Details ID: 200212 Name: NORTHERN ENDEAVOUR Lat: -10.61 Lon: 125.98 Height: 16.0 m
Data from the previous 72 hours. | See also: Recent months for locations in Northern Territory
Date/Time
CST
Temp

°C
Wind Pressure Rain
since 9am
mm
Weather Cloud Vis
km
Sea
Height
m
Swell
Dir
 
Speed
knots
Gust
knots
hPa Trend Height
m
Period
s
Dir
03/03:50am 25.4 SSE 8 8 1015.0 - - - - 10 - - - -
03/03:40am 25.4 SE 7 10 1015.0 - - - - 10 - - - -
03/03:30am 25.4 SE 8 10 1015.2 - - - - 10 - - - -
03/03:20am 25.3 SSE 7 7 1015.3 - - - - 10 - - - -
03/03:10am 25.4 SSE 7 8 1015.4 - - - - 10 - - - -
03/03:00am 25.4 SE 6 7 1015.3 - - - - 10 - - - -
03/02:50am 25.5 SE 8 7 1015.3 - - - - 10 - - - -
03/02:40am 25.5 SE 8 8 1015.5 - - - - 10 - - - -
03/02:30am 25.5 SE 9 9 1015.5 - - - - 10 - - - -
03/02:20am 25.6 SE 8 10 1015.6 - - - - 10 - - - -
03/02:10am 25.6 SE 9 10 1015.6 - - - Partly cloudy 10 - - - -
03/02:00am 25.7 SE 10 11 1015.7 - - - Partly cloudy 10 - - - -
03/01:50am 25.7 SSE 12 14 1015.8 - - - Partly cloudy 10 - - - -
03/01:40am 25.6 SE 11 12 1015.9 - - - - 10 - - - -
03/01:30am 25.6 SE 12 13 1015.8 - - - - 10 - - - -
03/01:20am 25.7 SE 12 14 1015.9 - - - Partly cloudy 10 - - - -
03/01:10am 25.8 SE 11 12 1016.0 - - - Partly cloudy 10 - - - -
03/01:00am 25.7 SE 12 15 1016.1 - - - Partly cloudy 10 - - - -
03/12:50am 25.8 SSE 11 13 1016.1 - - - Partly cloudy 10 - - - -
03/12:40am 25.8 SE 11 12 1016.1 - - - Partly cloudy 10 - - - -
03/12:30am 25.8 SSE 11 12 1016.1 - - - - 10 - - - -
03/12:20am 25.8 SSE 11 12 1016.1 - - - - 10 - - - -
03/12:10am 25.9 SSE 11 11 1016.2 - - - Partly cloudy 10 - - - -
03/12:00am 26.1 SSE 9 11 1016.2 - - - Partly cloudy 10 - - - -
 
Date/Time
CST
Temp

°C
Wind Pressure Rain
since 9am
mm
Weather Cloud Vis
km
Sea
Height
m
Swell
Dir
 
Speed
knots
Gust
knots
hPa Trend Height
m
Period
s
Dir
02/11:50pm 25.9 SSE 9 10 1016.2 - - - Partly cloudy 10 - - - -
02/11:40pm 25.9 SSE 9 10 1016.3 - - - Partly cloudy 10 - - - -
02/11:30pm 26.2 SSE 10 12 1016.4 - - - Partly cloudy 10 - - - -
02/11:20pm 26.2 SSE 11 12 1016.5 - - - Partly cloudy 10 - - - -
02/11:10pm 26.2 SSE 9 12 1016.4 - - - Partly cloudy 10 - - - -
02/11:00pm 26.1 SSE 10 9 1016.5 - - - Partly cloudy 10 - - - -
02/10:50pm 26.3 SSE 10 14 1016.4 - - - Partly cloudy 10 - - - -
02/10:40pm 26.3 SSE 10 11 1016.4 - - - Partly cloudy 10 - - - -
02/10:30pm 26.3 SSE 9 11 1016.4 - - - Partly cloudy 10 - - - -
02/10:20pm 26.2 SSE 10 12 1016.4 - - - Partly cloudy 10 - - - -
02/10:10pm 26.3 SSE 10 13 1016.3 - - - Partly cloudy 10 - - - -
02/10:00pm 26.3 SSE 8 11 1016.2 - - - Partly cloudy 10 - - - -
02/09:50pm 26.3 SSE 8 11 1016.1 - - - Partly cloudy 10 - - - -
02/09:40pm 26.3 SE 8 10 1016.0 - - - Partly cloudy 10 - - - -
02/09:30pm 26.4 SSE 9 11 1015.9 - - - - 10 - - - -
02/09:20pm 26.3 SE 7 11 1015.8 - - - Partly cloudy 10 - - - -
02/09:10pm 26.5 SE 7 8 1015.7 - - - - 10 - - - -
02/09:00pm 26.4 SE 6 10 1015.7 - - - Partly cloudy 10 - - - -
02/08:50pm 26.5 SE 6 10 1015.6 - - - - 10 - - - -
02/08:40pm 26.5 SE 7 7 1015.5 - - - - 10 - - - -
02/08:30pm 26.6 SE 7 10 1015.4 - - - - 10 - - - -
02/08:20pm 26.5 SE 6 10 1015.3 - - - - 10 - - - -
02/08:10pm 26.6 SE 6 7 1015.2 - - - Partly cloudy 10 - - - -
02/08:00pm 26.7 SE 6 7 1015.1 - - - Partly cloudy 8 - - - -
02/07:50pm 26.7 SSE 6 9 1015.0 - - - Partly cloudy 10 - - - -
02/07:40pm 26.7 SE 6 10 1014.9 - - - Partly cloudy 10 - - - -
02/07:30pm 26.7 ESE 6 7 1014.9 - - - Partly cloudy 10 - - - -
02/07:20pm 27.3 SE 7 7 1014.8 - - - Partly cloudy 10 - - - -
02/07:10pm 27.0 SE 5 10 1014.7 - - - Partly cloudy 10 - - - -
02/07:00pm 27.2 SSE 6 8 1014.6 - - - Partly cloudy 10 - - - -
02/06:50pm 27.1 S 5 8 1014.4 - - - Partly cloudy 10 - - - -
02/06:40pm 27.6 SSE 5 6 1014.4 - - - - 10 - - - -
02/06:30pm 28.6 SE 5 7 1014.3 - - - - 10 - - - -
02/06:20pm 28.8 SE 6 8 1014.2 - - - - 10 - - - -
02/06:10pm 29.6 SE 6 7 1014.1 - - - - 10 - - - -
02/06:00pm 29.8 SE 6 7 1014.0 - - - - 10 - - - -
02/05:50pm 28.7 SE 5 9 1013.9 - - - - 10 - - - -
02/05:40pm 30.1 SE 6 8 1013.9 - - - - 10 - - - -
02/05:30pm 29.8 SSE 5 8 1013.9 - - - Partly cloudy 10 - - - -
02/05:20pm 30.2 SE 6 6 1013.8 - - - Partly cloudy 10 - - - -
02/05:10pm 29.7 SSE 6 9 1013.7 - - - Partly cloudy 10 - - - -
02/05:00pm 28.9 SSE 4 9 1013.7 - - - Partly cloudy 10 - - - -
02/04:50pm 29.0 SSE 5 7 1013.7 - - - Partly cloudy 10 - - - -
02/04:40pm 30.0 SE 6 9 1013.6 - - - Partly cloudy 10 - - - -
02/04:30pm 28.8 SSE 5 9 1013.6 - - - Partly cloudy 10 - - - -
02/04:20pm 29.9 SSE 7 10 1013.6 - - - - 10 - - - -
02/04:10pm 29.9 SSE 7 9 1013.5 - - - - 10 - - - -
02/04:00pm 29.2 SSE 6 8 1013.7 - - - - 10 - - - -
02/03:50pm 30.2 SSE 7 9 1013.8 - - - - 10 - - - -
02/03:40pm 29.2 SSE 6 9 1013.9 - - - Partly cloudy 10 - - - -
02/03:30pm 29.4 SSE 6 7 1014.0 - - - Partly cloudy 10 - - - -
02/03:20pm 28.4 S 6 9 1014.1 - - - Partly cloudy 10 - - - -
02/03:10pm 28.7 SSE 7 9 1014.2 - - - - 10 - - - -
02/03:00pm 29.1 S 6 8 1014.1 - - - Partly cloudy 10 - - - -
02/02:50pm 28.9 SSE 5 8 1014.3 - - - Partly cloudy 10 - - - -
02/02:40pm 29.2 SE 4 5 1014.5 - - - Partly cloudy 10 - - - -
02/02:30pm 28.9 SE 5 5 1014.8 - - - Partly cloudy 10 - - - -
02/02:20pm 29.3 ESE 5 8 1015.0 - - - - 10 - - - -
02/02:10pm 29.5 ESE 5 7 1015.1 - - - - 10 - - - -
02/02:00pm 28.7 E 5 6 1015.2 - - - - 10 - - - -
02/01:50pm 28.4 E 4 5 1015.3 - - - - 10 - - - -
02/01:40pm 27.5 E 4 5 1015.4 - - - - 10 - - - -
02/01:30pm 27.5 ENE 5 6 1015.5 - - - - 10 - - - -
02/01:20pm 26.6 NE 5 7 1015.7 - - - - 10 - - - -
02/01:10pm 26.3 NE 6 9 1015.8 - - - - 10 - - - -
02/01:00pm 26.7 NE 7 8 1015.9 - - - - 10 - - - -
02/12:50pm 26.4 NE 7 8 1016.0 - - - - 10 - - - -
02/12:40pm 26.6 ENE 5 7 1016.3 - - - - 10 - - - -
02/12:30pm 26.8 NE 6 7 1016.4 - - - - 10 - - - -
02/12:20pm 26.5 NE 7 7 1016.4 - - - - 10 - - - -
02/12:10pm 26.4 NE 8 8 1016.4 - - - - 10 - - - -
02/12:00pm 26.5 NE 9 10 1016.5 - - - - 10 - - - -
02/11:50am 26.4 NE 9 10 1016.7 - - - - 10 - - - -
02/11:40am 26.3 NE 9 11 1016.7 - - - - 10 - - - -
02/11:30am 26.2 NE 10 11 1016.7 - - - - 10 - - - -
02/11:20am 26.2 NE 10 11 1016.7 - - - - 10 - - - -
02/11:10am 26.3 NNE 11 13 1016.8 - - - - 10 - - - -
02/11:00am 26.3 NNE 11 12 1016.7 - - - - 10 - - - -
02/10:50am 26.2 NNE 10 12 1016.8 - - - - 10 - - - -
02/10:40am 26.3 NNE 10 11 1016.9 - - - - 10 - - - -
02/10:30am 26.1 NNE 11 12 1017.0 - - - - 10 - - - -
02/10:20am 26.1 NNE 11 13 1017.0 - - - - 10 - - - -
02/10:10am 26.0 NNE 12 13 1016.9 - - - - 10 - - - -
02/10:00am 26.0 NNE 13 14 1016.9 - - - - 10 - - - -
02/09:50am 25.9 NNE 12 14 1016.8 - - - - 10 - - - -
02/09:40am 25.9 NNE 9 11 1016.8 - - - - 10 - - - -
02/09:30am 25.9 NE 7 8 1016.7 - - - - 10 - - - -
02/09:20am 26.1 NE 8 7 1016.7 - - - - 10 - - - -
02/09:10am 26.1 NE 7 8 1016.7 - - - - 10 - - - -
02/09:00am 26.2 E 6 9 1016.6 - - - - 10 - - - -
02/08:50am 26.1 E 7 9 1016.6 - - - - 10 - - - -
02/08:40am 26.1 E 6 9 1016.4 - - - - 10 - - - -
02/08:30am 26.1 E 6 7 1016.2 - - - - 10 - - - -
02/08:20am 26.2 E 8 8 1016.0 - - - - 10 - - - -
02/08:10am 26.1 E 9 9 1016.0 - - - - 10 - - - -
02/08:00am 25.8 E 7 8 1015.9 - - - - 10 - - - -
02/07:50am 25.4 E 5 6 1015.6 - - - - 10 - - - -
02/07:40am 25.4 E 4 5 1015.5 - - - - 10 - - - -
02/07:30am 25.4 SE 3 3 1015.4 - - - - 10 - - - -
02/07:20am 25.4 ESE 4 4 1015.5 - - - - 10 - - - -
02/07:10am 25.3 ESE 3 5 1015.4 - - - - 10 - - - -
02/07:00am 25.4 ESE 4 5 1015.3 - - - - 10 - - - -
02/06:50am 25.3 ESE 5 6 1015.3 - - - - 10 - - - -
02/06:40am 25.4 ESE 6 6 1015.3 - - - - 10 - - - -
02/06:30am 25.4 ESE 7 8 1015.2 - - - Partly cloudy 10 - - - -
02/06:20am 25.4 ESE 7 8 1015.2 - - - Partly cloudy 10 - - - -
02/06:10am 25.4 ESE 7 8 1015.1 - - - Partly cloudy 10 - - - -
02/06:00am 25.5 SE 7 8 1015.1 - - - Cloudy 10 - - - -
02/05:50am 25.6 S 4 5 1014.9 - - - Partly cloudy 10 - - - -
02/05:40am 25.6 SE 5 5 1014.8 - - - Partly cloudy 10 - - - -
02/05:30am 25.4 ESE 6 9 1014.7 - - - Partly cloudy 10 - - - -
02/05:20am 25.5 ESE 7 10 1014.7 - - - Partly cloudy 10 - - - -
02/05:10am 25.5 ESE 8 9 1014.7 - - - Partly cloudy 10 - - - -
02/05:00am 25.6 ESE 8 8 1014.7 - - - Cloudy 10 - - - -
02/04:50am 25.6 ESE 7 9 1014.7 - - - Cloudy 10 - - - -
02/04:40am 25.6 ESE 7 8 1014.7 - - - Partly cloudy 10 - - - -
02/04:30am 25.5 ESE 7 8 1014.7 - - - Partly cloudy 10 - - - -
02/04:20am 25.5 SE 7 7 1014.6 - - - Partly cloudy 10 - - - -
02/04:10am 25.7 SE 8 9 1014.7 - - - Partly cloudy 10 - - - -
02/04:00am 25.6 SE 9 9 1014.8 - - - Partly cloudy 10 - - - -
02/03:50am 25.6 SE 10 11 1014.7 - - - - 10 - - - -
02/03:40am 25.7 SE 10 10 1014.7 - - - - 10 - - - -
02/03:30am 25.7 ESE 10 11 1014.7 - - - - 10 - - - -
02/03:20am 25.6 ESE 10 11 1014.8 - - - - 10 - - - -
02/03:10am 25.7 ESE 11 12 1014.9 - - - - 10 - - - -
02/03:00am 25.8 SE 11 12 1014.9 - - - - 10 - - - -
02/02:50am 25.7 SE 11 13 1014.9 - - - - 10 - - - -
02/02:40am 25.8 SE 12 12 1015.0 - - - - 10 - - - -
02/02:30am 25.8 ESE 12 13 1015.0 - - - - 10 - - - -
02/02:20am 25.9 ESE 11 14 1015.1 - - - Partly cloudy 10 - - - -
02/02:10am 25.8 ESE 11 10 1015.2 - - - Partly cloudy 10 - - - -
02/02:00am 25.8 ESE 9 14 1015.2 - - - Partly cloudy 10 - - - -
02/01:50am 25.9 ESE 10 12 1015.2 - - - Partly cloudy 10 - - - -
02/01:40am 25.9 ESE 11 11 1015.2 - - - - 10 - - - -
02/01:30am 25.9 ESE 11 12 1015.2 - - - - 10 - - - -
02/01:20am 26.0 ESE 12 14 1015.3 - - - - 10 - - - -
02/01:10am 26.0 ESE 11 14 1015.3 - - - Partly cloudy 10 - - - -
02/01:00am 25.9 ESE 10 12 1015.3 - - - Partly cloudy 10 - - - -
02/12:50am 26.1 ESE 10 12 1015.3 - - - Partly cloudy 10 - - - -
02/12:40am 26.0 ESE 11 11 1015.3 - - - Partly cloudy 10 - - - -
02/12:30am 25.9 SE 14 14 1015.3 - - - Partly cloudy 10 - - - -
02/12:20am 26.0 ESE 12 15 1015.3 - - - Partly cloudy 10 - - - -
02/12:10am 25.6 SE 7 9 1015.3 - - - Partly cloudy 10 - - - -
02/12:00am 25.4 SE 10 9 1015.4 - - - Partly cloudy 10 - - - -
 
Date/Time
CST
Temp

°C
Wind Pressure Rain
since 9am
mm
Weather Cloud Vis
km
Sea
Height
m
Swell
Dir
 
Speed
knots
Gust
knots
hPa Trend Height
m
Period
s
Dir
01/11:50pm 25.5 SE 11 16 1015.3 - - - Partly cloudy 10 - - - -
01/11:40pm 25.5 ESE 6 8 1015.5 - - - Partly cloudy 10 - - - -
01/11:30pm 25.4 SE 6 7 1015.5 - - - Partly cloudy 10 - - - -
01/11:20pm 25.4 SE 7 9 1015.4 - - - Partly cloudy 10 - - - -
01/11:10pm 25.2 SE 7 11 1015.5 - - - Partly cloudy 10 - - - -
01/11:00pm 25.2 SE 6 8 1015.5 - - - Partly cloudy 10 - - - -
01/10:50pm 25.1 ESE 4 6 1015.6 - - - Partly cloudy 10 - - - -
01/10:40pm 24.9 SE 3 5 1015.6 - - - Partly cloudy 10 - - - -
01/10:30pm 24.9 SE 2 4 1015.5 - - - Partly cloudy 10 - - - -
01/10:20pm 25.0 S 4 4 1015.5 - - - Partly cloudy 10 - - - -
01/10:10pm 24.9 S 5 5 1015.5 - - - Partly cloudy 10 - - - -
01/10:00pm 24.7 SE 4 8 1015.5 - - - Partly cloudy 10 - - - -
01/09:50pm 24.3 SE 6 7 1015.4 - - - Partly cloudy 10 - - - -
01/09:40pm 24.0 ESE 9 10 1015.4 - - - Partly cloudy 10 - - - -
01/09:30pm 24.6 ESE 7 14 1015.3 - - - Partly cloudy 10 - - - -
01/09:20pm 25.3 SE 7 8 1015.2 - - - Partly cloudy 10 - - - -
01/09:10pm 25.7 SE 6 8 1015.1 - - - Partly cloudy 10 - - - -
01/09:00pm 25.7 S 5 4 1014.9 - - - Partly cloudy 10 - - - -
01/08:50pm 25.7 S 6 5 1014.8 - - - Partly cloudy 10 - - - -
01/08:40pm 25.7 S 7 7 1014.6 - - - Cloudy 10 - - - -
01/08:30pm 25.7 S 7 8 1014.5 - - - Cloudy 10 - - - -
01/08:20pm 25.7 S 6 7 1014.4 - - - Partly cloudy 10 - - - -
01/08:10pm 25.7 S 7 10 1014.3 - - - Partly cloudy 10 - - - -
01/08:00pm 25.7 S 7 11 1014.2 - - - Partly cloudy 10 - - - -
01/07:50pm 25.7 S 7 7 1014.1 - - - Partly cloudy 10 - - - -
01/07:40pm 25.7 S 9 10 1013.9 - - - Partly cloudy 10 - - - -
01/07:30pm 25.8 S 9 10 1013.9 - - - Partly cloudy 10 - - - -
01/07:20pm 25.8 S 8 11 1013.8 - - - Partly cloudy 10 - - - -
01/07:10pm 25.8 S 8 8 1013.7 - - - Partly cloudy 10 - - - -
01/07:00pm 25.6 S 7 10 1013.6 - - - Partly cloudy 10 - - - -
01/06:50pm 25.2 SSW 4 4 1013.5 - - - Partly cloudy 10 - - - -
01/06:40pm 25.1 WSW 2 3 1013.5 - - - Partly cloudy 10 - - - -
01/06:30pm 25.2 NE 2 4 1013.4 - - - Partly cloudy 10 - - - -
01/06:20pm 25.0 NW 2 2 1013.4 - - - Partly cloudy 10 - - - -
01/06:10pm 24.8 NW 4 5 1013.3 - - - Partly cloudy 10 - - - -
01/06:00pm 24.5 NW 3 5 1013.3 - - - Partly cloudy 10 - - - -
01/05:50pm 24.4 NNE 3 3 1013.4 - - - Partly cloudy 10 - - - -
01/05:40pm 24.5 SE 2 3 1013.4 - - - Partly cloudy 10 - - - -
01/05:30pm 24.6 SE 5 4 1013.3 - - - Partly cloudy 10 - - - -
01/05:20pm 24.5 SE 7 8 1013.4 - - - Cloudy 10 - - - -
01/05:10pm 24.1 ESE 9 8 1013.4 - - - Partly cloudy 10 - - - -
01/05:00pm 23.9 ESE 8 11 1013.5 - - - Partly cloudy 10 - - - -
01/04:50pm 23.1 ESE 6 8 1013.5 - - - Partly cloudy 10 - - - -
01/04:40pm 23.1 ESE 12 12 1013.7 - - - Partly cloudy 10 - - - -
01/04:30pm 24.0 SE 19 19 1013.6 - - - Partly cloudy 10 - - - -
01/04:20pm 24.6 SE 9 21 1013.5 - - - Partly cloudy 4 - - - -
01/04:10pm 25.3 SSE 3 7 1013.3 - - - Partly cloudy 7 - - - -
01/04:00pm 25.7 SSE 2 3 1013.3 - - - Partly cloudy 10 - - - -
01/03:50pm 25.7 S 3 4 1013.3 - - - Partly cloudy 10 - - - -
01/03:40pm 25.8 S 4 3 1013.5 - - - Partly cloudy 10 - - - -
01/03:30pm 25.9 S 2 4 1013.6 - - - Partly cloudy 10 - - - -
01/03:20pm 25.8 SE 2 3 1013.6 - - - Partly cloudy 10 - - - -
01/03:10pm 25.0 ESE 3 4 1013.8 - - - Partly cloudy 10 - - - -
01/03:00pm 24.2 ENE 3 3 1014.0 - - - Partly cloudy 10 - - - -
01/02:50pm 23.8 ENE 4 6 1014.1 - - - Partly cloudy 10 - - - -
01/02:40pm 24.0 ENE 3 4 1014.3 - - - Partly cloudy 10 - - - -
01/02:30pm 24.4 ESE 3 3 1014.3 - - - Partly cloudy 10 - - - -
01/02:20pm 24.3 ESE 3 4 1014.4 - - - Partly cloudy 7 - - - -
01/02:10pm 24.0 SE 7 5 1014.6 - - - Partly cloudy 10 - - - -
01/02:00pm 23.6 SE 14 12 1014.8 - - - Partly cloudy 8 - - - -
01/01:50pm 23.6 ESE 18 21 1014.9 - - - Partly cloudy 4 - - - -
01/01:40pm 25.7 SE 13 24 1014.9 - - - Partly cloudy 10 - - - -
01/01:30pm 26.3 SSE 3 7 1014.9 - - - Partly cloudy 8 - - - -
01/01:20pm 26.2 S 3 3 1014.9 - - - Partly cloudy 10 - - - -
01/01:10pm 26.5 S 6 6 1015.0 - - - Partly cloudy 10 - - - -
01/01:00pm 26.5 S 6 6 1015.1 - - - Partly cloudy 10 - - - -
01/12:50pm 26.9 SSE 6 6 1015.2 - - - Partly cloudy 10 - - - -
01/12:40pm 27.0 ESE 6 7 1015.4 - - - Partly cloudy 10 - - - -
01/12:30pm 25.8 ENE 6 8 1015.6 - - - Partly cloudy 7 - - - -
01/12:20pm 25.7 NE 6 7 1015.6 - - - Partly cloudy 10 - - - -
01/12:10pm 26.0 NNE 5 5 1015.5 - - - Partly cloudy 10 - - - -
01/12:00pm 26.1 NNE 4 6 1015.7 - - - Partly cloudy 10 - - - -
01/11:50am 26.2 NNE 3 5 1015.8 - - - Partly cloudy 10 - - - -
01/11:40am 26.4 NE 5 5 1015.8 - - - Partly cloudy 10 - - - -
01/11:30am 26.8 NE 5 6 1015.9 - - - Partly cloudy 10 - - - -
01/11:20am 26.8 NE 5 6 1016.0 - - - Cloudy 10 - - - -
01/11:10am 26.5 ENE 5 6 1016.0 - - - Cloudy 10 - - - -
01/11:00am 26.6 ENE 6 6 1016.2 - - - Cloudy 10 - - - -
01/10:50am 27.1 E 5 6 1016.2 - - - Cloudy 10 - - - -
01/10:40am 26.8 E 4 6 1016.2 - - - Cloudy 10 - - - -
01/10:30am 26.9 E 6 7 1016.3 - - - Cloudy 10 - - - -
01/10:20am 27.4 E 7 7 1016.2 - - - Cloudy 10 - - - -
01/10:10am 26.8 E 7 8 1016.3 - - - Cloudy 10 - - - -
01/10:00am 27.0 E 9 9 1016.2 - - - Cloudy 10 - - - -
01/09:50am 26.5 E 7 8 1016.2 - - - Cloudy 10 - - - -
01/09:40am 26.7 E 7 8 1016.0 - - - Partly cloudy 10 - - - -
01/09:30am 26.9 E 7 8 1015.9 - - - Partly cloudy 10 - - - -
01/09:20am 27.0 E 7 8 1015.8 - - - - 10 - - - -
01/09:10am 27.8 E 8 8 1015.7 - - - - 10 - - - -
01/09:00am 27.4 E 7 7 1015.5 - - - - 10 - - - -
01/08:50am 27.1 E 6 9 1015.3 - - - - 10 - - - -
01/08:40am 26.6 E 6 6 1015.1 - - - - 10 - - - -
01/08:30am 26.7 E 6 9 1015.1 - - - - 10 - - - -
01/08:20am 26.3 ENE 6 7 1015.0 - - - - 10 - - - -
01/08:10am 26.4 E 7 8 1015.0 - - - - 10 - - - -
01/08:00am 26.2 E 8 8 1014.9 - - - - 10 - - - -
01/07:50am 25.8 E 7 8 1014.8 - - - - 10 - - - -
01/07:40am 25.6 E 6 7 1014.6 - - - - 10 - - - -
01/07:30am 25.6 ENE 6 8 1014.5 - - - Partly cloudy 10 - - - -
01/07:20am 25.6 NE 8 10 1014.4 - - - - 10 - - - -
01/07:10am 25.6 NE 9 11 1014.2 - - - - 10 - - - -
01/07:00am 25.6 NE 9 11 1014.2 - - - - 10 - - - -
01/06:50am 25.6 NE 9 10 1014.0 - - - - 10 - - - -
01/06:40am 25.7 ENE 8 10 1014.0 - - - - 10 - - - -
01/06:30am 25.7 E 8 11 1014.1 - - - - 10 - - - -
01/06:20am 25.7 E 9 12 1014.0 - - - - 10 - - - -
01/06:10am 25.8 E 9 12 1013.9 - - - - 10 - - - -
01/06:00am 25.9 E 12 13 1013.8 - - - - 10 - - - -
01/05:50am 25.7 ENE 10 10 1013.9 - - - Partly cloudy 10 - - - -
01/05:40am 25.8 E 11 13 1013.9 - - - Partly cloudy 10 - - - -
01/05:30am 25.8 E 9 13 1013.8 - - - Partly cloudy 10 - - - -
01/05:20am 26.1 E 13 13 1013.8 - - - Partly cloudy 10 - - - -
01/05:10am 26.1 ESE 13 14 1013.8 - - - Partly cloudy 10 - - - -
01/05:00am 26.2 ESE 14 14 1013.8 - - - Partly cloudy 10 - - - -
01/04:50am 26.2 ESE 14 15 1013.8 - - - Partly cloudy 10 - - - -
01/04:40am 26.1 ESE 14 15 1013.8 - - - Partly cloudy 10 - - - -
01/04:30am 26.1 ESE 13 14 1013.8 - - - Partly cloudy 10 - - - -
01/04:20am 26.0 ESE 13 14 1013.7 - - - Partly cloudy 10 - - - -
01/04:10am 26.0 ESE 13 15 1013.6 - - - Partly cloudy 10 - - - -
01/04:00am 26.0 ESE 14 15 1013.7 - - - Partly cloudy 10 - - - -
01/03:50am 26.1 ESE 14 15 1013.7 - - - Partly cloudy 10 - - - -
01/03:40am 26.1 ESE 14 15 1013.8 - - - Partly cloudy 10 - - - -
01/03:30am 26.1 ESE 14 16 1013.9 - - - Partly cloudy 10 - - - -
01/03:20am 26.1 ESE 14 16 1013.9 - - - Partly cloudy 10 - - - -
01/03:10am 26.1 ESE 15 16 1013.9 - - - - 10 - - - -
01/03:00am 26.2 ESE 15 16 1014.0 - - - - 10 - - - -
01/02:50am 26.1 ESE 15 16 1014.0 - - - - 10 - - - -
01/02:40am 26.1 ESE 16 18 1014.0 - - - - 10 - - - -
01/02:30am 26.2 ESE 17 18 1014.0 - - - - 10 - - - -
01/02:20am 26.2 ESE 16 18 1014.1 - - - - 10 - - - -
01/02:10am 26.3 ESE 15 15 1014.2 - - - - 10 - - - -
01/02:00am 26.2 ESE 14 15 1014.2 - - - - 10 - - - -
01/01:50am 26.2 ESE 14 15 1014.2 - - - - 10 - - - -
01/01:40am 26.2 ESE 14 15 1014.3 - - - - 10 - - - -
01/01:30am 26.3 ESE 15 13 1014.4 - - - - 10 - - - -
01/01:20am 26.5 ESE 16 16 1014.4 - - - - 10 - - - -
01/01:10am 26.6 ESE 17 18 1014.4 - - - - 10 - - - -
01/01:00am 26.6 ESE 16 17 1014.4 - - - - 10 - - - -
01/12:50am 26.5 ESE 17 17 1014.6 - - - - 10 - - - -
01/12:40am 26.5 ESE 15 19 1014.5 - - - - 10 - - - -
01/12:30am 26.4 ESE 17 18 1014.6 - - - - 10 - - - -
01/12:20am 26.4 ESE 16 17 1014.6 - - - - 10 - - - -
01/12:10am 26.5 ESE 15 18 1014.6 - - - - 10 - - - -
01/12:00am 26.5 ESE 16 18 1014.7 - - - - 10 - - - -
 
Date/Time
CST
Temp

°C
Wind Pressure Rain
since 9am
mm
Weather Cloud Vis
km
Sea
Height
m
Swell
Dir
 
Speed
knots
Gust
knots
hPa Trend Height
m
Period
s
Dir
31/11:50pm 26.7 ESE 16 17 1014.7 - - - - 10 - - - -
31/11:40pm 26.6 ESE 15 16 1014.8 - - - - 10 - - - -
31/11:30pm 26.6 ESE 15 16 1014.8 - - - - 10 - - - -
31/11:20pm 26.7 ESE 16 16 1014.8 - - - Partly cloudy 10 - - - -
31/11:10pm 26.5 ESE 15 18 1014.8 - - - Partly cloudy 10 - - - -
31/11:00pm 26.6 ESE 15 16 1014.8 - - - Partly cloudy 10 - - - -
31/10:50pm 26.6 ESE 16 17 1014.7 - - - Partly cloudy 10 - - - -
31/10:40pm 26.8 ESE 16 18 1014.7 - - - Partly cloudy 10 - - - -
31/10:30pm 26.9 ESE 16 17 1014.7 - - - Partly cloudy 10 - - - -
31/10:20pm 27.0 ESE 16 18 1014.7 - - - Partly cloudy 10 - - - -
31/10:10pm 27.0 ESE 15 19 1014.7 - - - Partly cloudy 10 - - - -
31/10:00pm 26.5 ESE 12 14 1014.7 - - - Partly cloudy 10 - - - -
31/09:50pm 26.5 ESE 13 14 1014.6 - - - Partly cloudy 10 - - - -
31/09:40pm 26.5 ESE 14 15 1014.5 - - - Partly cloudy 10 - - - -
31/09:30pm 26.6 ESE 14 15 1014.4 - - - Partly cloudy 10 - - - -
31/09:20pm 26.5 ESE 14 15 1014.3 - - - Partly cloudy 10 - - - -
31/09:10pm 26.5 ESE 14 15 1014.3 - - - - 10 - - - -
31/09:00pm 26.6 ESE 15 15 1014.3 - - - Partly cloudy 10 - - - -
31/08:50pm 26.7 ESE 14 15 1014.2 - - - - 10 - - - -
31/08:40pm 26.7 ESE 12 15 1014.1 - - - Partly cloudy 10 - - - -
31/08:30pm 26.6 ESE 13 13 1014.0 - - - Partly cloudy 10 - - - -
31/08:20pm 26.7 ESE 13 14 1013.9 - - - Partly cloudy 10 - - - -
31/08:10pm 26.7 ESE 11 12 1013.8 - - - Partly cloudy 10 - - - -
31/08:00pm 26.7 SE 11 13 1013.7 - - - Partly cloudy 10 - - - -
31/07:50pm 26.8 SE 11 12 1013.6 - - - Partly cloudy 10 - - - -
31/07:40pm 26.8 SE 13 13 1013.5 - - - Partly cloudy 10 - - - -
31/07:30pm 27.1 SE 13 14 1013.3 - - - Partly cloudy 10 - - - -
31/07:20pm 26.8 ESE 7 13 1013.2 - - - Partly cloudy 10 - - - -
31/07:10pm 27.1 SE 9 10 1013.1 - - - Partly cloudy 10 - - - -
31/07:00pm 27.1 SE 9 11 1012.9 - - - Partly cloudy 10 - - - -
31/06:50pm 27.1 SE 10 12 1012.9 - - - Partly cloudy 10 - - - -
31/06:40pm 27.2 SE 10 12 1012.9 - - - Partly cloudy 10 - - - -
31/06:30pm 27.4 SE 11 12 1012.8 - - - Partly cloudy 10 - - - -
31/06:20pm 27.6 SE 11 13 1012.7 - - - Partly cloudy 10 - - - -
31/06:10pm 27.7 ESE 10 8 1012.7 - - - Partly cloudy 10 - - - -
31/06:00pm 28.5 ESE 11 11 1012.7 - - - Partly cloudy 10 - - - -
31/05:50pm 28.5 ESE 10 12 1012.5 - - - Partly cloudy 10 - - - -
31/05:40pm 28.8 ESE 10 12 1012.4 - - - Partly cloudy 10 - - - -
31/05:30pm 27.7 ESE 7 10 1012.3 - - - Partly cloudy 10 - - - -
31/05:20pm 28.3 ESE 8 9 1012.3 - - - Partly cloudy 10 - - - -
31/05:10pm 28.6 ESE 9 8 1012.3 - - - Partly cloudy 10 - - - -
31/05:00pm 27.4 E 6 9 1012.2 - - - - 10 - - - -
31/04:50pm 27.5 ESE 8 9 1012.2 - - - - 10 - - - -
31/04:40pm 28.0 ESE 8 9 1012.2 - - - Partly cloudy 10 - - - -
31/04:30pm 28.1 ESE 8 9 1012.3 - - - Partly cloudy 10 - - - -
31/04:20pm 29.2 ESE 8 11 1012.2 - - - Partly cloudy 10 - - - -
31/04:10pm 28.4 ESE 9 8 1012.2 - - - Partly cloudy 10 - - - -
31/04:00pm 28.1 ESE 10 11 1012.2 - - - Partly cloudy 10 - - - -
31/03:50pm 27.6 ESE 6 9 1012.3 - - - Partly cloudy 10 - - - -
31/03:40pm 27.8 ESE 7 9 1012.4 - - - Partly cloudy 10 - - - -
31/03:30pm 26.8 E 6 7 1012.4 - - - Partly cloudy 10 - - - -
31/03:20pm 27.4 ESE 7 8 1012.5 - - - Partly cloudy 10 - - - -
31/03:10pm 28.0 ESE 8 10 1012.6 - - - Partly cloudy 10 - - - -
31/03:00pm 28.7 ESE 8 8 1012.7 - - - Partly cloudy 10 - - - -
31/02:50pm 28.0 ESE 8 10 1012.9 - - - Partly cloudy 10 - - - -
31/02:40pm 28.0 ESE 8 10 1013.0 - - - Partly cloudy 10 - - - -
31/02:30pm 28.9 ESE 9 10 1013.1 - - - Partly cloudy 10 - - - -
31/02:20pm 28.9 ESE 9 10 1013.3 - - - Partly cloudy 10 - - - -
31/02:10pm 27.8 ESE 8 11 1013.4 - - - Partly cloudy 10 - - - -
31/02:00pm 28.3 ESE 8 9 1013.6 - - - Partly cloudy 10 - - - -
31/01:50pm 28.0 ESE 9 10 1013.7 - - - Partly cloudy 10 - - - -
31/01:40pm 27.5 ESE 9 11 1013.9 - - - Partly cloudy 10 - - - -
31/01:30pm 27.4 E 8 10 1014.0 - - - Partly cloudy 10 - - - -
31/01:20pm 27.2 E 7 8 1014.1 - - - Partly cloudy 10 - - - -
31/01:10pm 27.2 E 8 11 1014.2 - - - Partly cloudy 10 - - - -
31/01:00pm 27.0 E 8 11 1014.4 - - - Partly cloudy 10 - - - -
31/12:50pm 27.2 E 7 11 1014.5 - - - Partly cloudy 10 - - - -
31/12:40pm 27.1 E 8 11 1014.6 - - - Partly cloudy 10 - - - -
31/12:30pm 26.8 E 9 12 1014.8 - - - Partly cloudy 10 - - - -
31/12:20pm 26.9 ENE 10 11 1015.0 - - - Partly cloudy 10 - - - -
31/12:10pm 26.7 ENE 10 13 1015.1 - - - Partly cloudy 10 - - - -
31/12:00pm 26.7 E 9 13 1015.1 - - - Partly cloudy 10 - - - -
31/11:50am 26.9 E 9 11 1015.1 - - - Partly cloudy 10 - - - -
31/11:40am 26.9 E 8 14 1015.1 - - - Partly cloudy 10 - - - -
31/11:30am 26.7 ENE 9 11 1015.2 - - - Partly cloudy 10 - - - -
31/11:20am 26.5 ENE 12 13 1015.3 - - - Partly cloudy 10 - - - -
31/11:10am 26.7 ENE 11 12 1015.3 - - - - 10 - - - -
31/11:00am 26.4 ENE 12 13 1015.4 - - - Partly cloudy 10 - - - -
31/10:50am 26.6 ENE 11 14 1015.5 - - - Partly cloudy 10 - - - -
31/10:40am 26.7 ENE 11 10 1015.6 - - - - 10 - - - -
31/10:30am 26.5 ENE 11 13 1015.6 - - - - 10 - - - -
31/10:20am 26.4 ENE 11 11 1015.6 - - - - 10 - - - -
31/10:10am 26.4 ENE 11 13 1015.7 - - - - 10 - - - -
31/10:00am 26.5 ENE 10 12 1015.7 - - - - 10 - - - -
31/09:50am 26.5 ENE 11 12 1015.7 - - - - 10 - - - -
31/09:40am 26.3 ENE 12 14 1015.6 - - - Partly cloudy 10 - - - -
31/09:30am 26.3 ENE 10 13 1015.5 - - - Partly cloudy 10 - - - -
31/09:20am 26.2 ENE 10 11 1015.5 - - - Partly cloudy 10 - - - -
31/09:10am 26.5 ENE 9 9 1015.5 - - - Partly cloudy 10 - - - -
31/09:00am 26.3 ENE 9 12 1015.4 - - - Partly cloudy 10 - - - -
31/08:50am 26.1 ENE 11 12 1015.3 - - - Partly cloudy 10 - - - -
31/08:40am 26.1 ENE 8 10 1015.3 - - - Partly cloudy 10 - - - -
31/08:30am 25.9 ENE 10 11 1015.2 - - - Partly cloudy 10 - - - -
31/08:20am 26.1 ENE 9 12 1015.2 - - - - 10 - - - -
31/08:10am 26.1 ENE 10 11 1015.1 - - - - 10 - - - -
31/08:00am 25.9 ENE 9 10 1015.0 - - - Partly cloudy 10 - - - -
31/07:50am 25.9 ENE 9 11 1014.9 - - - Partly cloudy 10 - - - -
31/07:40am 25.8 ENE 9 11 1014.8 - - - Partly cloudy 10 - - - -
31/07:30am 25.7 ENE 8 10 1014.7 - - - Partly cloudy 10 - - - -
31/07:20am 25.8 ENE 10 11 1014.6 - - - Partly cloudy 10 - - - -
31/07:10am 25.8 ENE 11 13 1014.6 - - - - 10 - - - -
31/07:00am 25.7 ENE 9 10 1014.5 - - - - 10 - - - -
31/06:50am 25.8 E 8 8 1014.5 - - - - 10 - - - -
31/06:40am 25.8 E 9 13 1014.5 - - - Partly cloudy 10 - - - -
31/06:30am 25.8 E 9 12 1014.6 - - - Partly cloudy 10 - - - -
31/06:20am 25.8 E 8 11 1014.5 - - - Partly cloudy 10 - - - -
31/06:10am 25.7 E 9 11 1014.5 - - - Partly cloudy 10 - - - -
31/06:00am 25.7 E 9 12 1014.5 - - - Partly cloudy 10 - - - -
31/05:50am 25.8 E 10 12 1014.4 - - - Partly cloudy 10 - - - -
31/05:40am 25.8 E 10 13 1014.5 - - - Partly cloudy 10 - - - -
31/05:30am 25.9 E 10 13 1014.5 - - - Partly cloudy 10 - - - -
31/05:20am 25.8 ENE 11 13 1014.5 - - - Partly cloudy 10 - - - -
31/05:10am 25.8 ENE 12 14 1014.6 - - - Partly cloudy 10 - - - -
31/05:00am 25.9 ENE 11 15 1014.6 - - - - 10 - - - -
31/04:50am 25.8 ENE 12 14 1014.7 - - - Partly cloudy 10 - - - -
31/04:40am 25.9 ENE 11 15 1014.7 - - - Partly cloudy 10 - - - -
31/04:30am 25.9 ENE 13 15 1014.7 - - - Partly cloudy 10 - - - -
31/04:20am 25.9 ENE 14 15 1014.8 - - - Partly cloudy 10 - - - -
31/04:10am 25.9 ENE 13 14 1014.8 - - - Partly cloudy 10 - - - -

Other Formats:

Comma delimited format used in spreadsheet applications
http://www.bom.gov.au/fwo/IDD60701/IDD60701.95100.axf

JavaScript Object Notation format (JSON) in row-major order
http://www.bom.gov.au/fwo/IDD60701/IDD60701.95100.json